User: anonymous   Login
Location: Unspecified
(0.0000°N, 0.0000°E)
Time: 18:25:17
(UTC+00:00)
Language:

METEOR M2 - Orbit

View from above orbital plane
View from above orbital plane
View from above satellite
View from above satellite

Ground track
Ground track

The orbit data is extracted from the following two-line orbital elements,

1 40069U 14037A   17080.89934098 -.00000023 +00000-0 +93839-5 0  9993
2 40069 098.6658 137.3907 0006816 103.4640 256.7292 14.20640359140161
Epoch (UTC): 21 March 2017 21:35:03
Eccentricity: 0.0006816
inclination: 98.6658°
perigee height: 818 km
apogee height: 828 km
right ascension of ascending node: 137.3907°
argument of perigee: 103.4640°
revolutions per day: 14.20640359
mean anomaly at epoch: 256.7292°
orbit number at epoch: 14016

The dashed part of the orbit path shows where the satellite is in the earth's shadow,  

DLR